[[{"header":{"parameterUnit":"m.s-1","parameterCategory":2,"la1":30.2991,"la2":30.254,"lo1":-89.0895,"lo2":-89.0444,"dy":0.0017,"dx":0.0017,"nx":28,"ny":28,"refTime":"2023-11-16T03:00:00:Z","depth":"0","parameterNumber":2,"parameterNumberName":"U-component_of_CURRENTS"},"data":[0,0,0,0,0,0,0,0,0,0,0,0,0,0,0,0,0,0,0,0,0,0,0,0,0,0,0,0,0,0,0,0,0,0,0,0,0,0,0,0,0,0,0,0,0,0,0,0,0,0,0,0,0,0,0,0,0,0,-0.1771,-0.1772,0,-0.1786,-0.1786,-0.1786,-0.1778,-0.1778,-0.1778,-0.1778,-0.1776,-0.1776,-0.1776,0,0,0,0,0,0,0,0,0,0,0,0,0,-0.1717,-0.1718,-0.1771,-0.1772,-0.1772,-0.1786,-0.1786,-0.1786,-0.1778,-0.1778,-0.1778,-0.1778,-0.1776,-0.1776,-0.1776,0,0,0,0,0,0,0,0,0,0,0,0,0,-0.1735,-0.1719,-0.1771,-0.1771,-0.1772,-0.1786,-0.1786,-0.1786,-0.1778,-0.1778,-0.1778,-0.1777,-0.1776,-0.1776,-0.1776,-0.1784,0,0,-0.1777,-0.1777,0,0,0,0,0,0,0,0,-0.1734,-0.1737,-0.1771,-0.1771,-0.1772,-0.1782,-0.1767,-0.1785,-0.1778,-0.1773,-0.1778,-0.1777,-0.1778,-0.1778,-0.1779,-0.1784,-0.1784,-0.1777,-0.1777,-0.1777,-0.1777,0,0,0,0,0,0,0,-0.1733,-0.1736,-0.1775,-0.1772,-0.1772,-0.1765,-0.1767,-0.177,-0.1775,-0.1774,-0.1774,-0.1779,-0.1778,-0.1779,-0.1779,-0.1784,-0.1777,-0.1777,-0.1777,-0.1777,-0.181,-0.181,0,0,0,0,0,0,-0.1737,-0.1735,-0.1775,-0.1776,-0.1755,-0.1766,-0.1768,-0.1777,-0.1776,-0.1776,-0.1779,-0.1779,-0.1778,-0.1778,-0.1779,-0.1801,-0.1777,-0.1777,-0.1778,-0.1809,-0.181,-0.181,0,0,0,0,0,0,-0.1736,-0.1741,-0.1774,-0.1757,-0.1761,-0.1768,-0.1778,-0.1778,-0.1781,-0.178,-0.178,-0.1783,-0.1778,-0.1778,-0.1787,-0.1801,-0.1777,-0.1778,-0.1808,-0.1809,-0.181,-0.1838,0,0,0,0,0,0,-0.1735,-0.174,-0.1746,-0.1758,-0.1762,-0.1791,-0.1778,-0.1778,-0.1786,-0.1785,-0.1784,-0.1783,-0.1778,-0.1786,-0.1787,-0.1801,-0.1778,-0.1807,-0.1808,-0.181,-0.1836,-0.184,-0.1843,0,0,0,0,0,-0.1733,-0.1746,-0.1747,-0.1751,-0.1771,-0.1792,-0.1794,-0.1795,-0.1787,-0.1795,-0.1791,-0.1783,-0.1795,-0.1787,-0.1788,-0.1802,-0.1806,-0.1808,-0.181,-0.1835,-0.1839,-0.1843,0,0,0,0,0,0,-0.1727,-0.1747,-0.1748,-0.1767,-0.1782,-0.1792,-0.1799,-0.1799,-0.1802,-0.1798,-0.1791,-0.1791,-0.1804,-0.18,-0.1791,-0.1815,-0.18,-0.1802,-0.1819,-0.1824,-0.1827,-0.1849,-0.1778,0,0,0,0,0,-0.1729,-0.1742,-0.1761,-0.1775,-0.1784,-0.1791,-0.1798,-0.1801,-0.1807,-0.1808,-0.1805,-0.1805,-0.1811,-0.1815,-0.1818,-0.1831,-0.1838,-0.1841,-0.1844,-0.1847,-0.1866,-0.1876,-0.1882,-0.1816,-0.1816,-0.1816,0,0,-0.173,-0.1743,-0.1749,-0.1774,-0.1782,-0.1811,-0.1794,-0.181,-0.1832,-0.1807,-0.1828,-0.1817,-0.1818,-0.1832,-0.1838,-0.183,-0.1872,-0.1849,-0.1852,-0.187,-0.1878,-0.1885,-0.1891,-0.1817,-0.1817,-0.1817,0,0,-0.1747,-0.175,-0.1773,-0.179,-0.1812,-0.1821,-0.1828,-0.1842,-0.1846,-0.1863,-0.1851,-0.1851,-0.1858,-0.1863,-0.1866,-0.1892,-0.1889,-0.1889,-0.1926,-0.1935,-0.194,-0.1945,-0.1971,-0.1978,-0.1891,-0.1891,-0.1891,0,-0.1747,-0.1781,-0.1782,-0.1813,-0.1833,-0.183,-0.1865,-0.1873,-0.1886,-0.1895,-0.1875,-0.1887,-0.1878,-0.1905,-0.1911,-0.1901,-0.191,-0.1907,-0.194,-0.1945,-0.1949,-0.1974,-0.1982,-0.1893,-0.1893,-0.1893,-0.1892,0,-0.1788,-0.1816,-0.1831,-0.1871,-0.1891,-0.1917,-0.1936,-0.1949,-0.1946,-0.1952,-0.1967,-0.1949,-0.1956,-0.195,-0.1939,-0.197,-0.1967,-0.1941,-0.1929,-0.1958,-0.1982,-0.1989,-0.1895,-0.1895,-0.1894,-0.1894,0,0,-0.1786,-0.1849,-0.1854,-0.1879,-0.1924,-0.1939,-0.1984,-0.2019,-0.2039,-0.2036,-0.2063,-0.2059,-0.2035,-0.2038,-0.2015,-0.2023,-0.2056,-0.1999,-0.1999,-0.2026,-0.2092,-0.2139,-0.2151,-0.203,-0.2031,-0.2032,-0.2098,0,-0.1819,-0.1882,-0.1911,-0.1967,-0.1999,-0.202,-0.2057,-0.2083,-0.2095,-0.2116,-0.2101,-0.2107,-0.2072,-0.2063,-0.2069,-0.2054,-0.2075,-0.2042,-0.206,-0.2061,-0.2099,-0.2161,-0.2183,-0.2248,-0.2105,-0.2106,-0.2107,0,-0.1849,-0.1888,-0.195,-0.2009,-0.2024,-0.2054,-0.2103,-0.2136,-0.2171,-0.2178,-0.2188,-0.2174,-0.2185,-0.2141,-0.2154,-0.2133,-0.2127,-0.2117,-0.2118,-0.2161,-0.2122,-0.2194,-0.2266,-0.2272,-0.2118,-0.2117,-0.2116,0,-0.1828,-0.1911,-0.1954,-0.1977,-0.2046,-0.207,-0.21,-0.2145,-0.217,-0.2209,-0.223,-0.2238,-0.2236,-0.2229,-0.2218,-0.2181,-0.2244,-0.2183,-0.2231,-0.2234,-0.226,-0.2264,-0.2343,-0.2215,-0.2215,-0.2215,-0.2214,0,-0.184,-0.1872,-0.1942,-0.196,-0.2002,-0.2053,-0.2089,-0.2128,-0.2181,-0.2223,-0.2243,-0.2282,-0.2256,-0.2287,-0.2261,-0.2292,-0.228,-0.227,-0.2264,-0.2271,-0.2275,-0.2286,-0.2287,-0.2217,-0.2217,-0.2216,-0.2216,0,-0.1798,-0.1851,-0.1896,-0.1968,-0.1987,-0.2005,-0.2067,-0.2097,-0.216,-0.222,-0.2234,-0.2311,-0.2362,-0.2367,-0.2374,-0.2357,-0.2372,-0.2385,-0.2412,-0.2409,-0.2436,-0.2439,-0.2492,-0.2436,-0.2438,-0.2439,-0.2441,0,-0.1784,-0.1804,-0.1873,-0.1885,-0.1911,-0.1948,-0.1977,-0.206,-0.2105,-0.2245,-0.2278,-0.2369,-0.2451,-0.2513,-0.252,-0.2536,-0.2462,-0.2535,-0.2468,-0.2482,-0.2478,-0.2421,-0.2362,-0.251,-0.2512,-0.2513,-0.2515,0,-0.174,-0.176,-0.1783,-0.1817,-0.1846,-0.1886,-0.1943,-0.1986,-0.2106,-0.2207,-0.2359,-0.2449,-0.2568,-0.2646,-0.2682,-0.2648,-0.2524,-0.2567,-0.2568,-0.2556,-0.2513,-0.2441,-0.2429,-0.2528,-0.2527,-0.2526,-0.2525,-0.2525,-0.1682,-0.1683,-0.1708,-0.1733,-0.177,-0.1817,-0.1841,-0.1956,-0.2066,-0.2263,-0.2387,-0.2617,-0.2736,-0.2816,-0.2779,-0.2755,-0.2657,-0.2673,-0.268,-0.2623,-0.2565,-0.2607,-0.2703,-0.2703,-0.2703,-0.2703,-0.2702,0,-0.1612,-0.1613,-0.1626,-0.1659,-0.1679,-0.1722,-0.1811,-0.1857,-0.2004,-0.2287,-0.2475,-0.2851,-0.2942,-0.2997,-0.3015,-0.2911,-0.2767,-0.2805,-0.272,-0.2651,-0.2693,-0.2692,-0.2808,-0.2808,-0.2808,-0.2808,-0.2808,-0.2808,-0.1566,-0.1543,-0.1557,-0.1557,-0.1582,-0.1596,-0.1636,-0.1749,-0.1934,-0.2313,-0.2675,-0.2981,-0.3084,-0.3318,-0.3205,-0.304,-0.2884,-0.2837,-0.275,-0.2799,-0.2785,-0.2772,-0.2772,-0.2902,-0.2903,-0.2647,-0.2646,-0.2645]},{"header":{"parameterUnit":"m.s-1","parameterCategory":2,"la1":30.2991,"la2":30.254,"lo1":-89.0895,"lo2":-89.0444,"dy":0.0017,"dx":0.0017,"nx":28,"ny":28,"refTime":"2023-11-16T03:00:00:Z","depth":"0","parameterNumber":3,"parameterNumberName":"V-component_of_CURRENTS"},"data":[0,0,0,0,0,0,0,0,0,0,0,0,0,0,0,0,0,0,0,0,0,0,0,0,0,0,0,0,0,0,0,0,0,0,0,0,0,0,0,0,0,0,0,0,0,0,0,0,0,0,0,0,0,0,0,0,0,0,-0.0336,-0.0336,0,-0.0267,-0.0266,-0.0265,-0.0222,-0.0222,-0.0222,-0.0221,-0.0139,-0.0137,-0.0135,0,0,0,0,0,0,0,0,0,0,0,0,0,-0.0393,-0.0392,-0.0337,-0.0336,-0.0335,-0.0267,-0.0266,-0.0265,-0.0222,-0.0222,-0.0222,-0.0221,-0.0139,-0.0137,-0.0135,0,0,0,0,0,0,0,0,0,0,0,0,0,-0.035,-0.0392,-0.0337,-0.0306,-0.0302,-0.0267,-0.0266,-0.0265,-0.0222,-0.0222,-0.0222,-0.0221,-0.014,-0.0137,-0.0134,-0.0121,0,0,-0.0125,-0.0124,0,0,0,0,0,0,0,0,-0.0352,-0.0348,-0.0311,-0.0308,-0.0304,-0.0253,-0.0255,-0.0216,-0.0222,-0.0252,-0.0221,-0.0221,-0.0176,-0.017,-0.0157,-0.0117,-0.0114,-0.0125,-0.0123,-0.0122,-0.0121,0,0,0,0,0,0,0,-0.0355,-0.035,-0.0308,-0.031,-0.0306,-0.0281,-0.0275,-0.0247,-0.0216,-0.0249,-0.0246,-0.0239,-0.0174,-0.016,-0.0155,-0.0112,-0.0125,-0.0122,-0.012,-0.0119,-0.0057,-0.0057,0,0,0,0,0,0,-0.0367,-0.0353,-0.0311,-0.0306,-0.0328,-0.0281,-0.0274,-0.0269,-0.0216,-0.0208,-0.024,-0.0238,-0.0166,-0.0159,-0.0152,-0.0136,-0.0122,-0.0119,-0.0117,-0.0057,-0.0057,-0.0057,0,0,0,0,0,0,-0.0369,-0.0364,-0.0313,-0.0328,-0.032,-0.0281,-0.0275,-0.0268,-0.0253,-0.0209,-0.0201,-0.0233,-0.0165,-0.0156,-0.0129,-0.0132,-0.0117,-0.0115,-0.0057,-0.0057,-0.0057,-0.0102,0,0,0,0,0,0,-0.0371,-0.0365,-0.0367,-0.0329,-0.032,-0.0298,-0.0275,-0.0267,-0.025,-0.0246,-0.02,-0.0192,-0.0164,-0.0133,-0.0126,-0.0128,-0.0112,-0.0057,-0.0057,-0.0057,-0.0101,-0.0104,-0.0107,0,0,0,0,0,-0.0373,-0.0377,-0.0368,-0.0362,-0.0323,-0.0298,-0.0291,-0.0261,-0.025,-0.0246,-0.0215,-0.0194,-0.013,-0.0131,-0.0122,-0.0123,-0.0056,-0.0057,-0.0057,-0.0099,-0.0103,-0.0107,0,0,0,0,0,0,-0.0402,-0.0372,-0.0361,-0.0356,-0.0332,-0.0291,-0.0285,-0.0265,-0.0237,-0.0234,-0.0193,-0.0182,-0.016,-0.0136,-0.0138,-0.0107,-0.0091,-0.009,-0.0126,-0.013,-0.0133,-0.0138,-0.011,0,0,0,0,0,-0.0411,-0.0406,-0.0373,-0.037,-0.036,-0.0323,-0.031,-0.029,-0.026,-0.0247,-0.0214,-0.0182,-0.0155,-0.0139,-0.0111,-0.0092,-0.0067,-0.0088,-0.0092,-0.0095,-0.0093,-0.0064,-0.0064,-0.0059,-0.0059,-0.0059,0,0,-0.0421,-0.0404,-0.0402,-0.0376,-0.0354,-0.0346,-0.0314,-0.0298,-0.0289,-0.0243,-0.0221,-0.019,-0.0152,-0.0132,-0.012,-0.0112,-0.0084,-0.0095,-0.0098,-0.0094,-0.0064,-0.0065,-0.0065,-0.0059,-0.0059,-0.0059,0,0,-0.0444,-0.0426,-0.0432,-0.0414,-0.0388,-0.0364,-0.0362,-0.0324,-0.0305,-0.0281,-0.0247,-0.0219,-0.0178,-0.0149,-0.0131,-0.0135,-0.0102,-0.0129,-0.0148,-0.012,-0.012,-0.012,-0.0093,-0.009,-0.0131,-0.0131,-0.0131,0,-0.046,-0.0461,-0.0429,-0.043,-0.042,-0.0376,-0.0381,-0.0353,-0.0311,-0.0295,-0.0282,-0.0216,-0.0186,-0.0155,-0.0157,-0.0142,-0.0121,-0.0137,-0.0124,-0.0124,-0.0123,-0.0095,-0.0092,-0.0133,-0.0133,-0.0132,-0.0132,0,-0.0487,-0.0487,-0.0488,-0.0475,-0.0459,-0.0455,-0.0416,-0.0396,-0.0369,-0.0338,-0.03,-0.0254,-0.0214,-0.0202,-0.018,-0.0159,-0.0145,-0.0133,-0.0116,-0.0126,-0.0097,-0.0092,-0.0136,-0.0135,-0.0135,-0.0134,0,0,-0.0523,-0.0512,-0.0512,-0.0516,-0.0485,-0.0474,-0.0457,-0.0426,-0.0411,-0.0365,-0.0341,-0.0293,-0.0261,-0.0238,-0.0203,-0.0177,-0.0156,-0.0157,-0.0154,-0.0134,-0.0094,-0.0047,-0.0037,-0.0143,-0.0142,-0.0142,-0.0078,0,-0.0556,-0.0578,-0.0554,-0.0566,-0.0574,-0.0528,-0.0514,-0.0477,-0.0438,-0.0401,-0.0343,-0.0307,-0.0276,-0.0257,-0.0226,-0.0169,-0.0144,-0.0174,-0.0085,-0.0082,-0.0041,-0.003,-0.0016,0.0045,-0.0073,-0.0072,-0.0072,0,-0.059,-0.0601,-0.0629,-0.0616,-0.0613,-0.0608,-0.0575,-0.0553,-0.0488,-0.0457,-0.0404,-0.0351,-0.0295,-0.0273,-0.0182,-0.0202,-0.0155,-0.0113,-0.0109,-0.0044,-0.0025,0.0038,0.0059,0.0194,-0.0064,-0.0064,-0.0065,0,-0.0642,-0.0647,-0.0675,-0.0672,-0.0653,-0.0649,-0.0628,-0.0574,-0.0556,-0.0487,-0.0464,-0.0384,-0.0343,-0.027,-0.0173,-0.018,-0.0072,-0.007,0.0017,0.0021,0.0062,0.0069,0.0224,-0.0014,-0.0014,-0.0014,-0.0015,0,-0.069,-0.0705,-0.0703,-0.0718,-0.0734,-0.0698,-0.0696,-0.0658,-0.0609,-0.0594,-0.0497,-0.0465,-0.0342,-0.0258,-0.0179,-0.0055,-0.0074,0.0022,0.0045,0.0047,0.0051,0.0195,0.0265,-0.0012,-0.0013,-0.0013,-0.0013,0,-0.0742,-0.0744,-0.0773,-0.0769,-0.0764,-0.0775,-0.0746,-0.0745,-0.0684,-0.0661,-0.0641,-0.0524,-0.041,-0.0277,-0.0149,-0.0061,0.0132,0.0091,0.009,0.0112,0.0321,0.0387,0.0594,0.061,0.0199,0.0201,0.0202,0,-0.0773,-0.08,-0.0817,-0.0837,-0.0837,-0.0841,-0.0846,-0.0794,-0.0792,-0.0702,-0.07,-0.0569,-0.0491,-0.0255,-0.0061,0.0113,0.0197,0.0225,0.0218,0.035,0.044,0.0501,0.0501,0.025,0.0251,0.0253,0.0254,0,-0.0829,-0.0837,-0.0859,-0.0905,-0.0926,-0.0947,-0.0946,-0.0957,-0.09,-0.0879,-0.0827,-0.075,-0.0473,-0.024,0.0033,0.0131,0.0334,0.0258,0.0397,0.0504,0.0579,0.0598,0.0189,0.0266,0.0265,0.0264,0.0263,0.0263,-0.0861,-0.0894,-0.0929,-0.0969,-0.1006,-0.1056,-0.1096,-0.1101,-0.1115,-0.1105,-0.096,-0.0847,-0.0392,0.0005,0.0145,0.0491,0.0449,0.0558,0.0628,0.0678,0.0703,0.0328,0.0431,0.0431,0.0431,0.0431,0.043,0,-0.0905,-0.0939,-0.0987,-0.1052,-0.1125,-0.1114,-0.1171,-0.123,-0.1293,-0.1237,-0.1181,-0.0692,-0.0261,0.0161,0.072,0.0873,0.0862,0.0924,0.1006,0.0981,0.0652,0.0664,0.0822,0.0821,0.0821,0.0821,0.0821,0.0821,-0.0928,-0.0986,-0.1015,-0.1145,-0.12,-0.1312,-0.1364,-0.1444,-0.1444,-0.1369,-0.1147,-0.0949,-0.0171,0.0869,0.1346,0.1319,0.1388,0.1379,0.1412,0.1197,0.1167,0.1139,0.1167,0.1428,0.1428,0.1686,0.1689,0.1691]}],[{"header":{"parameterUnit":"m.s-1","parameterCategory":2,"la1":30.2991,"la2":30.254,"lo1":-89.0895,"lo2":-89.0444,"dy":0.0017,"dx":0.0017,"nx":28,"ny":28,"refTime":"2023-11-16T03:00:00:Z","depth":"2","parameterNumber":2,"parameterNumberName":"U-component_of_CURRENTS"},"data":[0,0,0,0,0,0,0,0,0,0,0,0,0,0,0,0,0,0,0,0,0,0,0,0,0,0,0,0,0,0,0,0,0,0,0,0,0,0,0,0,0,0,0,0,0,0,0,0,0,0,0,0,0,0,0,0,0,0,-0.1711,-0.1712,0,-0.1727,-0.1727,-0.1727,-0.172,-0.172,-0.172,-0.172,-0.172,-0.172,-0.172,0,0,0,0,0,0,0,0,0,0,0,0,0,-0.1658,-0.1659,-0.1711,-0.1712,-0.1712,-0.1727,-0.1727,-0.1727,-0.172,-0.172,-0.172,-0.172,-0.172,-0.172,-0.172,0,0,0,0,0,0,0,0,0,0,0,0,0,-0.1676,-0.166,-0.1711,-0.1712,-0.1713,-0.1727,-0.1727,-0.1727,-0.1721,-0.172,-0.172,-0.172,-0.172,-0.172,-0.172,-0.1727,0,0,-0.1721,-0.1721,0,0,0,0,0,0,0,0,-0.1675,-0.1678,-0.1712,-0.1712,-0.1713,-0.1723,-0.1708,-0.1727,-0.1721,-0.1715,-0.172,-0.172,-0.1721,-0.1721,-0.1722,-0.1727,-0.1727,-0.1721,-0.1721,-0.1721,-0.1721,0,0,0,0,0,0,0,-0.1674,-0.1677,-0.1715,-0.1712,-0.1713,-0.1706,-0.1708,-0.1711,-0.1717,-0.1716,-0.1716,-0.1721,-0.1721,-0.1722,-0.1722,-0.1727,-0.1721,-0.1721,-0.1721,-0.1722,-0.1754,-0.1754,0,0,0,0,0,0,-0.1678,-0.1676,-0.1715,-0.1716,-0.1696,-0.1707,-0.171,-0.1718,-0.1718,-0.1718,-0.1721,-0.1721,-0.1721,-0.1722,-0.1722,-0.1746,-0.1721,-0.1722,-0.1722,-0.1753,-0.1754,-0.1755,0,0,0,0,0,0,-0.1677,-0.1681,-0.1714,-0.1698,-0.1702,-0.1709,-0.1718,-0.1719,-0.1723,-0.1723,-0.1722,-0.1726,-0.1721,-0.1722,-0.1731,-0.1745,-0.1722,-0.1722,-0.1752,-0.1753,-0.1754,-0.1783,0,0,0,0,0,0,-0.1675,-0.1681,-0.1687,-0.1698,-0.1703,-0.1731,-0.1719,-0.1719,-0.1728,-0.1727,-0.1727,-0.1726,-0.1721,-0.173,-0.1731,-0.1745,-0.1722,-0.1751,-0.1753,-0.1754,-0.1781,-0.1784,-0.1788,0,0,0,0,0,-0.1673,-0.1687,-0.1688,-0.1692,-0.1712,-0.1732,-0.1734,-0.1736,-0.1728,-0.1737,-0.1734,-0.1726,-0.1739,-0.1731,-0.1731,-0.1746,-0.1751,-0.1752,-0.1754,-0.1779,-0.1784,-0.1788,0,0,0,0,0,0,-0.1668,-0.1688,-0.1689,-0.1707,-0.1722,-0.1732,-0.1739,-0.174,-0.1744,-0.1741,-0.1734,-0.1734,-0.1748,-0.1744,-0.1735,-0.176,-0.1745,-0.1746,-0.1764,-0.1768,-0.1771,-0.1793,-0.1722,0,0,0,0,0,-0.167,-0.1683,-0.1702,-0.1715,-0.1724,-0.1731,-0.1738,-0.1742,-0.1748,-0.175,-0.1748,-0.1748,-0.1755,-0.1758,-0.1762,-0.1775,-0.1782,-0.1785,-0.1789,-0.1792,-0.181,-0.182,-0.1826,-0.176,-0.176,-0.176,0,0,-0.1671,-0.1684,-0.169,-0.1715,-0.1723,-0.1751,-0.1735,-0.1751,-0.1773,-0.1749,-0.177,-0.176,-0.1761,-0.1776,-0.1782,-0.1774,-0.1816,-0.1794,-0.1796,-0.1813,-0.1822,-0.1829,-0.1834,-0.1761,-0.1761,-0.1761,0,0,-0.1688,-0.1692,-0.1714,-0.173,-0.1752,-0.1761,-0.1768,-0.1782,-0.1787,-0.1804,-0.1793,-0.1794,-0.1802,-0.1806,-0.181,-0.1836,-0.1833,-0.1834,-0.187,-0.1879,-0.1884,-0.1889,-0.1915,-0.1922,-0.1836,-0.1836,-0.1836,0,-0.1689,-0.1722,-0.1723,-0.1753,-0.1773,-0.177,-0.1805,-0.1813,-0.1826,-0.1836,-0.1817,-0.183,-0.1821,-0.1848,-0.1855,-0.1845,-0.1854,-0.1851,-0.1884,-0.1889,-0.1893,-0.1918,-0.1925,-0.1837,-0.1837,-0.1837,-0.1837,0,-0.1729,-0.1757,-0.1771,-0.181,-0.1829,-0.1855,-0.1873,-0.1887,-0.1885,-0.1891,-0.1907,-0.189,-0.1897,-0.1892,-0.1882,-0.1913,-0.1911,-0.1885,-0.1873,-0.1902,-0.1926,-0.1933,-0.184,-0.1839,-0.1839,-0.1838,0,0,-0.1727,-0.1789,-0.1793,-0.1819,-0.1862,-0.1877,-0.1921,-0.1955,-0.1976,-0.1974,-0.2001,-0.1998,-0.1975,-0.1978,-0.1957,-0.1965,-0.1998,-0.1943,-0.1942,-0.1969,-0.2035,-0.2078,-0.209,-0.1973,-0.1974,-0.1975,-0.2041,0,-0.176,-0.1822,-0.185,-0.1904,-0.1936,-0.1957,-0.1993,-0.2019,-0.203,-0.2051,-0.2038,-0.2045,-0.2012,-0.2003,-0.201,-0.1996,-0.2018,-0.1984,-0.2003,-0.2004,-0.2039,-0.21,-0.1911,-0.1958,-0.2048,-0.2049,-0.205,0,-0.1789,-0.1828,-0.1888,-0.1947,-0.1962,-0.1991,-0.2039,-0.207,-0.2105,-0.2112,-0.2123,-0.211,-0.2122,-0.2079,-0.2095,-0.2073,-0.2068,-0.2059,-0.206,-0.2101,-0.2062,-0.1942,-0.1968,-0.2062,-0.2061,-0.206,-0.2059,0,-0.1768,-0.185,-0.1894,-0.1916,-0.1983,-0.2008,-0.2037,-0.2081,-0.2105,-0.2143,-0.2164,-0.2173,-0.2172,-0.2167,-0.2157,-0.2122,-0.2184,-0.2124,-0.217,-0.2173,-0.2019,-0.2008,-0.2157,-0.2156,-0.2156,-0.2156,-0.2156,0,-0.178,-0.1813,-0.1883,-0.19,-0.1942,-0.1992,-0.2027,-0.2065,-0.2116,-0.2156,-0.2177,-0.2215,-0.2193,-0.2223,-0.2199,-0.223,-0.2219,-0.2208,-0.2202,-0.2026,-0.2015,-0.2103,-0.2096,-0.2159,-0.2158,-0.2158,-0.2157,0,-0.1739,-0.1792,-0.1836,-0.1908,-0.1927,-0.1945,-0.2006,-0.2034,-0.2096,-0.2154,-0.2168,-0.2244,-0.2295,-0.2301,-0.2309,-0.2293,-0.2305,-0.232,-0.2137,-0.211,-0.2274,-0.2267,-0.2366,-0.2368,-0.237,-0.2372,-0.2373,0,-0.1724,-0.1745,-0.1813,-0.1826,-0.1853,-0.189,-0.1918,-0.1998,-0.2041,-0.2177,-0.2209,-0.23,-0.2374,-0.2435,-0.2404,-0.241,-0.2395,-0.2246,-0.2152,-0.2316,-0.23,-0.229,-0.2281,-0.1947,-0.1944,-0.1943,-0.1941,0,-0.1683,-0.1702,-0.1724,-0.1759,-0.1787,-0.1826,-0.1882,-0.1923,-0.2039,-0.2133,-0.2279,-0.2362,-0.2443,-0.2392,-0.2412,-0.2358,-0.2227,-0.2215,-0.2418,-0.1949,-0.1933,-0.1913,-0.1915,-0.1925,-0.1926,-0.1928,-0.1928,-0.1929,-0.1627,-0.1626,-0.1651,-0.1676,-0.1712,-0.1757,-0.1778,-0.1876,-0.1975,-0.2118,-0.2257,-0.2362,-0.2335,-0.2324,-0.2222,-0.2118,-0.2249,-0.2102,-0.2101,-0.2103,-0.2069,-0.2061,-0.207,-0.2072,-0.2074,-0.2076,-0.2078,0,-0.1553,-0.1558,-0.1571,-0.1602,-0.1614,-0.1665,-0.1748,-0.1759,-0.1876,-0.2055,-0.2195,-0.208,-0.2095,-0.2062,-0.1914,-0.1887,-0.1773,-0.1769,-0.1604,-0.1624,-0.1641,-0.1575,-0.1449,-0.1447,-0.1445,-0.1443,0,0,-0.1507,-0.1481,-0.1493,-0.1487,-0.1517,-0.1517,-0.1554,-0.1605,-0.17,-0.1797,-0.1904,-0.2124,-0.2129,-0.1848,-0.1723,-0.1585,-0.1582,-0.15,-0.2011,-0.1844,-0.1859,-0.1848,-0.1775,0,0,0,0,0]},{"header":{"parameterUnit":"m.s-1","parameterCategory":2,"la1":30.2991,"la2":30.254,"lo1":-89.0895,"lo2":-89.0444,"dy":0.0017,"dx":0.0017,"nx":28,"ny":28,"refTime":"2023-11-16T03:00:00:Z","depth":"2","parameterNumber":3,"parameterNumberName":"V-component_of_CURRENTS"},"data":[0,0,0,0,0,0,0,0,0,0,0,0,0,0,0,0,0,0,0,0,0,0,0,0,0,0,0,0,0,0,0,0,0,0,0,0,0,0,0,0,0,0,0,0,0,0,0,0,0,0,0,0,0,0,0,0,0,0,-0.0254,-0.0254,0,-0.0187,-0.0186,-0.0185,-0.0146,-0.0146,-0.0145,-0.0145,-0.0066,-0.0064,-0.0062,0,0,0,0,0,0,0,0,0,0,0,0,0,-0.0309,-0.0308,-0.0254,-0.0254,-0.0253,-0.0187,-0.0186,-0.0185,-0.0146,-0.0145,-0.0145,-0.0145,-0.0066,-0.0064,-0.0061,0,0,0,0,0,0,0,0,0,0,0,0,0,-0.0267,-0.0308,-0.0254,-0.0226,-0.0222,-0.0187,-0.0186,-0.0185,-0.0146,-0.0145,-0.0145,-0.0145,-0.0067,-0.0064,-0.0061,-0.0046,0,0,-0.0052,-0.0051,0,0,0,0,0,0,0,0,-0.027,-0.0265,-0.0231,-0.0227,-0.0224,-0.0175,-0.0176,-0.0138,-0.0146,-0.0174,-0.0145,-0.0145,-0.0101,-0.0096,-0.0083,-0.0042,-0.0039,-0.0052,-0.005,-0.0048,-0.0048,0,0,0,0,0,0,0,-0.0273,-0.0268,-0.0227,-0.023,-0.0226,-0.0202,-0.0196,-0.0168,-0.0139,-0.0172,-0.0169,-0.0162,-0.0099,-0.0086,-0.0081,-0.0038,-0.0052,-0.0049,-0.0047,-0.0046,0.0016,0.0016,0,0,0,0,0,0,-0.0284,-0.0271,-0.0229,-0.0225,-0.0247,-0.0202,-0.0195,-0.019,-0.0139,-0.0132,-0.0162,-0.0161,-0.0091,-0.0084,-0.0078,-0.0062,-0.0048,-0.0046,-0.0044,0.0016,0.0016,0.0016,0,0,0,0,0,0,-0.0286,-0.0281,-0.0232,-0.0247,-0.0239,-0.0201,-0.0196,-0.0189,-0.0176,-0.0133,-0.0125,-0.0157,-0.0091,-0.0082,-0.0055,-0.0059,-0.0044,-0.0042,0.0016,0.0016,0.0016,-0.0029,0,0,0,0,0,0,-0.0288,-0.0282,-0.0284,-0.0248,-0.0238,-0.0216,-0.0196,-0.0188,-0.0172,-0.0169,-0.0125,-0.0117,-0.009,-0.006,-0.0052,-0.0054,-0.0039,0.0016,0.0016,0.0016,-0.0027,-0.003,-0.0033,0,0,0,0,0,-0.029,-0.0294,-0.0285,-0.028,-0.0242,-0.0217,-0.021,-0.0182,-0.0173,-0.0169,-0.0139,-0.0119,-0.0057,-0.0057,-0.0048,-0.005,0.0016,0.0016,0.0016,-0.0025,-0.003,-0.0033,0,0,0,0,0,0,-0.0318,-0.0289,-0.0279,-0.0274,-0.025,-0.021,-0.0205,-0.0186,-0.0159,-0.0157,-0.0117,-0.0107,-0.0086,-0.0062,-0.0064,-0.0034,-0.0018,-0.0017,-0.0052,-0.0056,-0.0059,-0.0064,-0.0037,0,0,0,0,0,-0.0327,-0.0322,-0.029,-0.0287,-0.0277,-0.0242,-0.0229,-0.0211,-0.0182,-0.017,-0.0138,-0.0106,-0.008,-0.0065,-0.0037,-0.0018,0.0006,-0.0015,-0.0018,-0.0021,-0.0019,0.001,0.001,0.0014,0.0014,0.0014,0,0,-0.0337,-0.0321,-0.0318,-0.0293,-0.0272,-0.0263,-0.0234,-0.0218,-0.0209,-0.0165,-0.0145,-0.0115,-0.0078,-0.0057,-0.0046,-0.0038,-0.001,-0.0021,-0.0024,-0.002,0.001,0.0009,0.0009,0.0014,0.0014,0.0014,0,0,-0.0359,-0.0342,-0.0347,-0.033,-0.0305,-0.0281,-0.028,-0.0243,-0.0225,-0.0202,-0.017,-0.0143,-0.0102,-0.0074,-0.0056,-0.006,-0.0028,-0.0054,-0.0072,-0.0045,-0.0045,-0.0045,-0.0019,-0.0016,-0.0056,-0.0056,-0.0056,0,-0.0375,-0.0377,-0.0345,-0.0345,-0.0336,-0.0294,-0.0298,-0.0271,-0.023,-0.0215,-0.0204,-0.0139,-0.011,-0.0079,-0.0082,-0.0066,-0.0047,-0.0062,-0.0049,-0.0048,-0.0047,-0.0021,-0.0017,-0.0058,-0.0058,-0.0058,-0.0057,0,-0.04,-0.0401,-0.0402,-0.0389,-0.0373,-0.0369,-0.0331,-0.0312,-0.0286,-0.0256,-0.0219,-0.0175,-0.0136,-0.0125,-0.0104,-0.0082,-0.0069,-0.0058,-0.0041,-0.0051,-0.0022,-0.0018,-0.0061,-0.006,-0.006,-0.0059,0,0,-0.0437,-0.0426,-0.0425,-0.043,-0.0398,-0.0388,-0.037,-0.034,-0.0326,-0.0282,-0.0259,-0.0212,-0.0181,-0.0159,-0.0125,-0.01,-0.0079,-0.0081,-0.0078,-0.0058,-0.0019,0.0027,0.0036,-0.0066,-0.0066,-0.0065,-0.0004,0,-0.0469,-0.049,-0.0466,-0.0478,-0.0486,-0.044,-0.0426,-0.039,-0.0352,-0.0316,-0.0259,-0.0225,-0.0195,-0.0178,-0.0148,-0.0092,-0.0068,-0.0097,-0.001,-0.0007,0.0032,0.0043,0.0038,0.0096,0.0001,0.0002,0.0002,0,-0.0503,-0.0513,-0.0541,-0.0528,-0.0525,-0.052,-0.0487,-0.0466,-0.0401,-0.0371,-0.0321,-0.0269,-0.0214,-0.0194,-0.0104,-0.0124,-0.0078,-0.0037,-0.0034,0.0029,0.0048,0.0092,0.0108,0.0011,0.001,0.0009,0.0009,0,-0.0556,-0.056,-0.0587,-0.0585,-0.0565,-0.0562,-0.0541,-0.0488,-0.0469,-0.0403,-0.0381,-0.0301,-0.0263,-0.0191,-0.0096,-0.0103,0.0003,0.0005,0.009,0.0093,0.0118,0.0123,0.006,0.006,0.006,0.006,0.006,0,-0.0603,-0.0618,-0.0616,-0.0631,-0.0648,-0.0612,-0.0611,-0.0573,-0.0525,-0.0509,-0.0415,-0.0383,-0.0263,-0.018,-0.0102,0.0019,0.0001,0.0094,0.0116,0.0103,0.0105,0.0055,0.0053,0.0062,0.0062,0.0061,0.0061,0,-0.0654,-0.0656,-0.0686,-0.0682,-0.0678,-0.069,-0.0662,-0.066,-0.0601,-0.0578,-0.0559,-0.0443,-0.0332,-0.0201,-0.0075,0.0012,0.012,0.0162,0.0141,0.0161,0.0189,0.0184,0.0261,0.0264,0.0266,0.0267,0.0268,0,-0.0685,-0.0712,-0.073,-0.0751,-0.0751,-0.0757,-0.0763,-0.0711,-0.0708,-0.062,-0.0618,-0.0491,-0.0413,-0.0182,0.001,0.0181,0.0158,0.0271,0.0262,0.0198,0.0212,0.0204,0.0197,0.0272,0.0273,0.0274,0.0275,0,-0.0741,-0.075,-0.0771,-0.0819,-0.0841,-0.0862,-0.0863,-0.0874,-0.0817,-0.0795,-0.0743,-0.0667,-0.0396,-0.0176,0.0091,0.0185,0.025,0.0298,0.0242,0.0226,0.0214,0.0225,0.0217,0.0284,0.0283,0.0282,0.0282,0.0282,-0.0775,-0.0808,-0.0842,-0.0884,-0.0922,-0.0972,-0.1011,-0.1006,-0.1017,-0.0987,-0.0862,-0.0736,-0.0436,-0.007,0.0156,0.0364,0.0332,0.0373,0.0367,0.0361,0.0355,0.0348,0.0441,0.0441,0.0441,0.0441,0.0441,0,-0.0813,-0.0854,-0.0902,-0.0968,-0.1032,-0.1031,-0.1085,-0.1116,-0.1162,-0.1097,-0.103,-0.0707,-0.0387,-0.0091,0.0264,0.0475,0.0455,0.0494,0.0435,0.0425,0.0416,0.0411,0.0514,0.0514,0.0515,0.0516,0,0,-0.0835,-0.089,-0.0919,-0.1044,-0.1105,-0.1203,-0.1253,-0.1283,-0.1261,-0.1232,-0.1122,-0.0875,-0.0453,-0.0177,0.0126,0.0316,0.0289,0.0322,0.024,0.0121,0.0109,0.0327,0.0305,0,0,0,0,0]}],[{"header":{"parameterUnit":"m.s-1","parameterCategory":2,"la1":30.2991,"la2":30.254,"lo1":-89.0895,"lo2":-89.0444,"dy":0.0017,"dx":0.0017,"nx":28,"ny":28,"refTime":"2023-11-16T03:00:00:Z","depth":"4","parameterNumber":2,"parameterNumberName":"U-component_of_CURRENTS"},"data":[0,0,0,0,0,0,0,0,0,0,0,0,0,0,0,0,0,0,0,0,0,0,0,0,0,0,0,0,0,0,0,0,0,0,0,0,0,0,0,0,0,0,0,0,0,0,0,0,0,0,0,0,0,0,0,0,0,0,-0.1143,-0.1144,0,-0.1192,-0.1192,-0.1193,-0.1229,-0.123,-0.123,-0.1231,-0.1284,-0.1285,-0.1286,0,0,0,0,0,0,0,0,0,0,0,0,0,-0.1074,-0.1075,-0.1143,-0.1144,-0.1145,-0.1192,-0.1192,-0.1193,-0.1229,-0.123,-0.123,-0.1231,-0.1284,-0.1285,-0.1286,0,0,0,0,0,0,0,0,0,0,0,0,0,-0.111,-0.1075,-0.1143,-0.1169,-0.1172,-0.1192,-0.1192,-0.1193,-0.1229,-0.123,-0.123,-0.1231,-0.1283,-0.1285,-0.1286,-0.1283,0,0,-0.1291,-0.1292,0,0,0,0,0,0,0,0,-0.1108,-0.1113,-0.1165,-0.1168,-0.1171,-0.1206,-0.1188,-0.1224,-0.1229,-0.1206,-0.1231,-0.1231,-0.1259,-0.1262,-0.1268,-0.1285,-0.1287,-0.1291,-0.1292,-0.1293,-0.1293,0,0,0,0,0,0,0,-0.1105,-0.1111,-0.1161,-0.1165,-0.1169,-0.1176,-0.1182,-0.1194,-0.1227,-0.1208,-0.1211,-0.1218,-0.126,-0.1267,-0.127,-0.1288,-0.1291,-0.1292,-0.1293,-0.1294,-0.1367,-0.1368,0,0,0,0,0,0,-0.1102,-0.1108,-0.116,-0.1163,-0.1142,-0.1177,-0.1183,-0.1193,-0.1227,-0.1233,-0.1218,-0.122,-0.1264,-0.1268,-0.1272,-0.1327,-0.1293,-0.1294,-0.1295,-0.1366,-0.1368,-0.1369,0,0,0,0,0,0,-0.11,-0.1106,-0.1158,-0.1137,-0.1145,-0.1177,-0.1188,-0.1194,-0.1221,-0.1235,-0.1241,-0.1242,-0.1264,-0.127,-0.1304,-0.1327,-0.1295,-0.1296,-0.1365,-0.1367,-0.1368,-0.14,0,0,0,0,0,0,-0.1098,-0.1105,-0.112,-0.1137,-0.1146,-0.1184,-0.1188,-0.1194,-0.1224,-0.1228,-0.1257,-0.1261,-0.1265,-0.1301,-0.1305,-0.1329,-0.1297,-0.1364,-0.1366,-0.1368,-0.1398,-0.1403,-0.1407,0,0,0,0,0,-0.1095,-0.1111,-0.112,-0.1127,-0.1162,-0.1185,-0.119,-0.1214,-0.1224,-0.124,-0.1262,-0.1262,-0.1316,-0.1303,-0.1308,-0.1332,-0.1363,-0.1365,-0.1368,-0.1396,-0.1402,-0.1407,0,0,0,0,0,0,-0.1091,-0.1117,-0.1127,-0.1152,-0.1174,-0.1192,-0.1212,-0.1225,-0.1254,-0.1263,-0.1273,-0.128,-0.1318,-0.132,-0.1306,-0.1359,-0.134,-0.1343,-0.136,-0.1366,-0.137,-0.1376,-0.1299,0,0,0,0,0,-0.1096,-0.1115,-0.1138,-0.116,-0.1172,-0.1195,-0.121,-0.1227,-0.1249,-0.1264,-0.1284,-0.1306,-0.1326,-0.1343,-0.1359,-0.1388,-0.1391,-0.1407,-0.1412,-0.1415,-0.1424,-0.1441,-0.1448,-0.1376,-0.1376,-0.1376,0,0,-0.1101,-0.1118,-0.1131,-0.116,-0.118,-0.1202,-0.1206,-0.1237,-0.1262,-0.1264,-0.131,-0.1323,-0.1337,-0.1371,-0.1388,-0.138,-0.1439,-0.1418,-0.1421,-0.1428,-0.1444,-0.1451,-0.1457,-0.1378,-0.1378,-0.1378,0,0,-0.1113,-0.1137,-0.1155,-0.1175,-0.1207,-0.1221,-0.1233,-0.1263,-0.1287,-0.1324,-0.1334,-0.1363,-0.1395,-0.1412,-0.1422,-0.1461,-0.146,-0.1469,-0.15,-0.1517,-0.1523,-0.1528,-0.1545,-0.1552,-0.1473,-0.1473,-0.1473,0,-0.1121,-0.1142,-0.1165,-0.1186,-0.1205,-0.1231,-0.1253,-0.1281,-0.132,-0.1344,-0.1346,-0.1403,-0.1414,-0.1456,-0.1471,-0.1472,-0.1481,-0.1477,-0.1522,-0.1527,-0.1532,-0.1549,-0.1555,-0.1475,-0.1475,-0.1475,-0.1474,0,-0.1142,-0.1163,-0.1177,-0.1211,-0.1237,-0.126,-0.1296,-0.1331,-0.1359,-0.1385,-0.1438,-0.1454,-0.1489,-0.1497,-0.1498,-0.1542,-0.1538,-0.1523,-0.1507,-0.1541,-0.1557,-0.1563,-0.1478,-0.1477,-0.1476,-0.1476,0,0,-0.1139,-0.1182,-0.1187,-0.1209,-0.1251,-0.1276,-0.1322,-0.1369,-0.1412,-0.1448,-0.1498,-0.1532,-0.1546,-0.1559,-0.1566,-0.1584,-0.1624,-0.1574,-0.1574,-0.1588,-0.1668,-0.1592,-0.1591,-0.1617,-0.1619,-0.162,-0.1667,0,-0.1146,-0.1179,-0.1205,-0.1248,-0.1266,-0.1309,-0.1354,-0.1406,-0.1448,-0.1505,-0.1534,-0.1582,-0.1569,-0.1593,-0.1609,-0.1622,-0.1643,-0.1614,-0.1636,-0.1636,-0.1561,-0.1597,-0.1624,-0.1671,-0.1673,-0.1674,-0.1675,0,-0.1149,-0.1171,-0.1202,-0.1266,-0.1283,-0.1323,-0.1402,-0.1448,-0.1526,-0.1558,-0.1605,-0.1632,-0.1676,-0.1655,-0.1693,-0.1677,-0.1681,-0.1683,-0.1685,-0.1607,-0.1572,-0.1629,-0.1686,-0.1685,-0.1684,-0.1683,-0.1683,0,-0.1117,-0.1173,-0.1197,-0.1215,-0.1287,-0.133,-0.1388,-0.1468,-0.1517,-0.1601,-0.1641,-0.1688,-0.1725,-0.1733,-0.1745,-0.1725,-0.1784,-0.1749,-0.1687,-0.1682,-0.1722,-0.1715,-0.178,-0.178,-0.178,-0.178,-0.1779,0,-0.109,-0.1119,-0.1192,-0.1204,-0.1269,-0.1332,-0.1408,-0.1472,-0.1557,-0.1616,-0.1672,-0.1715,-0.1748,-0.1785,-0.1774,-0.1755,-0.1806,-0.1702,-0.169,-0.1734,-0.1729,-0.1726,-0.1719,-0.1781,-0.1781,-0.1781,-0.178,0,-0.1036,-0.1076,-0.1121,-0.121,-0.1248,-0.1303,-0.1422,-0.1471,-0.1561,-0.1637,-0.1667,-0.1751,-0.1792,-0.1821,-0.1847,-0.1789,-0.1779,-0.1763,-0.1829,-0.1819,-0.1657,-0.1651,-0.168,-0.1678,-0.1676,-0.1675,-0.1673,0,-0.1002,-0.1009,-0.1119,-0.1155,-0.12,-0.1288,-0.1343,-0.1456,-0.1502,-0.1645,-0.1669,-0.1761,-0.18,-0.178,-0.1808,-0.1793,-0.1771,-0.1754,-0.1682,-0.1662,-0.1648,-0.1645,-0.1643,-0.167,-0.167,-0.1669,-0.1669,0,-0.0931,-0.098,-0.1024,-0.1101,-0.1169,-0.1235,-0.1327,-0.1355,-0.1479,-0.1577,-0.1637,-0.1668,-0.1721,-0.1728,-0.1743,-0.1723,-0.175,-0.1733,-0.1735,-0.1667,-0.165,-0.1637,-0.1637,-0.1662,-0.1663,-0.1664,-0.1664,0,-0.0886,-0.091,-0.0971,-0.1042,-0.112,-0.116,-0.1221,-0.1286,-0.1351,-0.151,-0.1529,-0.1627,-0.1716,-0.1695,-0.1703,-0.1686,-0.1644,-0.1574,-0.1584,-0.1592,-0.1538,-0.1501,-0.1466,0,0,0,0,0,-0.0821,-0.0846,-0.0903,-0.0974,-0.105,-0.109,-0.1195,-0.1252,-0.1379,-0.1391,-0.1458,-0.1505,-0.1535,-0.1582,-0.1541,-0.1642,-0.1637,-0.1586,-0.1557,-0.1625,-0.1633,-0.1576,0,0,0,0,0,0,-0.0775,-0.0824,-0.087,-0.0898,-0.0929,-0.0993,-0.1053,-0.1139,-0.1153,-0.129,-0.1313,-0.1416,-0.146,-0.1539,-0.1511,-0.1523,-0.1476,-0.165,-0.1646,-0.1621,-0.1628,-0.1634,-0.1578,0,0,0,0,0]},{"header":{"parameterUnit":"m.s-1","parameterCategory":2,"la1":30.2991,"la2":30.254,"lo1":-89.0895,"lo2":-89.0444,"dy":0.0017,"dx":0.0017,"nx":28,"ny":28,"refTime":"2023-11-16T03:00:00:Z","depth":"4","parameterNumber":3,"parameterNumberName":"V-component_of_CURRENTS"},"data":[0,0,0,0,0,0,0,0,0,0,0,0,0,0,0,0,0,0,0,0,0,0,0,0,0,0,0,0,0,0,0,0,0,0,0,0,0,0,0,0,0,0,0,0,0,0,0,0,0,0,0,0,0,0,0,0,0,0,0.0016,0.0016,0,0.005,0.005,0.005,0.0068,0.0068,0.0068,0.0068,0.012,0.0121,0.0123,0,0,0,0,0,0,0,0,0,0,0,0,0,-0.0008,-0.0007,0.0016,0.0016,0.0016,0.005,0.005,0.0051,0.0068,0.0068,0.0068,0.0068,0.012,0.0121,0.0123,0,0,0,0,0,0,0,0,0,0,0,0,0,0.0012,-0.0007,0.0015,0.0029,0.003,0.0049,0.005,0.0051,0.0068,0.0068,0.0068,0.0068,0.0119,0.0121,0.0123,0.0136,0,0,0.013,0.013,0,0,0,0,0,0,0,0,0.0011,0.0013,0.0027,0.0028,0.003,0.0054,0.0061,0.008,0.0068,0.0054,0.0068,0.0068,0.01,0.0103,0.011,0.0139,0.0141,0.013,0.0131,0.0132,0.0132,0,0,0,0,0,0,0,0.001,0.0012,0.0029,0.0027,0.0029,0.0042,0.0045,0.0065,0.0077,0.0056,0.0057,0.006,0.0101,0.0108,0.0111,0.0142,0.013,0.0131,0.0133,0.0134,0.0175,0.0175,0,0,0,0,0,0,0.0003,0.0011,0.0028,0.003,0.002,0.0043,0.0046,0.0047,0.0077,0.0081,0.006,0.0061,0.0104,0.0109,0.0113,0.0121,0.0132,0.0134,0.0135,0.0176,0.0175,0.0175,0,0,0,0,0,0,0.0003,0.0004,0.0027,0.0021,0.0025,0.0043,0.0044,0.0048,0.0053,0.008,0.0084,0.0062,0.0105,0.011,0.0127,0.0124,0.0135,0.0137,0.0176,0.0176,0.0175,0.0144,0,0,0,0,0,0,0.0002,0.0004,0.0002,0.002,0.0025,0.0035,0.0044,0.0048,0.0055,0.0056,0.0083,0.0088,0.0105,0.0124,0.0129,0.0127,0.0138,0.0176,0.0176,0.0175,0.0145,0.0142,0.014,0,0,0,0,0,0.0001,-0.0002,0.0001,0.0004,0.0021,0.0035,0.0038,0.0051,0.0055,0.0057,0.0073,0.0087,0.0126,0.0125,0.0132,0.013,0.0176,0.0176,0.0175,0.0146,0.0143,0.014,0,0,0,0,0,0,-0.0012,0.0,0.0004,0.0005,0.0017,0.0037,0.0039,0.0049,0.0063,0.0064,0.0088,0.0094,0.0107,0.0123,0.0122,0.0141,0.0152,0.0153,0.0128,0.0125,0.0123,0.0121,0.014,0,0,0,0,0,-0.0017,-0.0018,-0.0001,-0.0002,0.0003,0.002,0.0027,0.0036,0.0051,0.0058,0.0077,0.0095,0.0112,0.0121,0.0139,0.0151,0.017,0.0153,0.0151,0.0149,0.0152,0.0175,0.0175,0.0174,0.0174,0.0174,0,0,-0.0023,-0.0016,-0.0016,-0.0005,0.0005,0.0012,0.0024,0.0031,0.0037,0.0061,0.0074,0.0089,0.0113,0.0125,0.0132,0.0137,0.0158,0.0149,0.0147,0.0151,0.0174,0.0174,0.0174,0.0174,0.0174,0.0174,0,0,-0.0034,-0.0028,-0.0032,-0.0023,-0.0011,0.0002,0.0002,0.0021,0.0028,0.0041,0.0059,0.0072,0.0098,0.0113,0.0125,0.0121,0.0146,0.0125,0.0113,0.0135,0.0135,0.0135,0.0156,0.0159,0.0123,0.0123,0.0123,0,-0.0042,-0.0041,-0.0031,-0.0029,-0.0025,-0.0004,-0.0004,0.0009,0.0031,0.0036,0.004,0.0076,0.0093,0.011,0.0107,0.0116,0.0133,0.012,0.0132,0.0133,0.0134,0.0155,0.0158,0.0122,0.0122,0.0122,0.0122,0,-0.0054,-0.0051,-0.0051,-0.0043,-0.0038,-0.0033,-0.0016,-0.0008,0.0003,0.0017,0.0032,0.0055,0.0075,0.0081,0.0093,0.0108,0.0118,0.0125,0.0137,0.0132,0.0154,0.0158,0.012,0.012,0.0121,0.0121,0,0,-0.0077,-0.0063,-0.0063,-0.0067,-0.0045,-0.0048,-0.0034,-0.0019,-0.0021,0.0005,0.001,0.0037,0.0048,0.0062,0.0078,0.0098,0.0115,0.0112,0.0114,0.013,0.0163,0.0174,0.0179,0.0124,0.0125,0.0125,0.0175,0,-0.0088,-0.0095,-0.008,-0.0087,-0.0089,-0.0067,-0.0064,-0.0051,-0.0033,-0.0023,0.0009,0.0018,0.0042,0.0041,0.0068,0.0103,0.0125,0.0101,0.0169,0.0171,0.0179,0.0184,0.0127,0.0178,0.0179,0.018,0.018,0,-0.0103,-0.0107,-0.0115,-0.0119,-0.0121,-0.0123,-0.0122,-0.0116,-0.0086,-0.0075,-0.0046,-0.0019,0.0017,0.0031,0.0101,0.0084,0.0121,0.0152,0.0154,0.0179,0.0189,0.0187,0.0188,0.0187,0.0187,0.0186,0.0186,0,-0.0133,-0.0133,-0.0145,-0.0143,-0.014,-0.015,-0.0154,-0.0136,-0.0141,-0.0109,-0.0105,-0.0049,-0.0034,0.003,0.0102,0.0099,0.0181,0.0183,0.023,0.0231,0.0221,0.022,0.0231,0.0231,0.0231,0.0231,0.0231,0,-0.0146,-0.0157,-0.0167,-0.0173,-0.021,-0.0196,-0.0226,-0.0215,-0.0202,-0.0213,-0.0142,-0.0131,-0.0035,0.0028,0.0097,0.0182,0.018,0.0233,0.0247,0.0206,0.0202,0.0224,0.0222,0.0233,0.0232,0.0232,0.0232,0,-0.0166,-0.0164,-0.0193,-0.021,-0.0222,-0.0257,-0.0286,-0.0305,-0.0279,-0.0287,-0.0278,-0.0195,-0.0112,-0.0005,0.0098,0.0164,0.0249,0.0278,0.023,0.0239,0.0285,0.0281,0.0332,0.0333,0.0333,0.0334,0.0334,0,-0.0169,-0.0182,-0.0234,-0.0271,-0.0282,-0.0327,-0.0358,-0.0351,-0.0366,-0.0328,-0.0333,-0.0248,-0.0185,-0.0026,0.0094,0.0242,0.0259,0.0312,0.0298,0.0288,0.0296,0.0291,0.0287,0.0336,0.0336,0.0336,0.0336,0,-0.0177,-0.0205,-0.024,-0.0318,-0.0369,-0.0422,-0.0461,-0.0477,-0.0463,-0.0435,-0.0388,-0.0285,-0.0185,-0.0043,0.0081,0.0186,0.0286,0.0319,0.0318,0.0306,0.0293,0.0299,0.0294,0.0339,0.0338,0.0338,0.0338,0,-0.0191,-0.0236,-0.0292,-0.0369,-0.0439,-0.0501,-0.0517,-0.0529,-0.0533,-0.048,-0.0466,-0.0335,-0.0254,-0.0072,0.0042,0.0154,0.0175,0.0211,0.0215,0.0214,0.0173,0.0139,0.0151,0,0,0,0,0,-0.0189,-0.0254,-0.0334,-0.0426,-0.0501,-0.054,-0.0577,-0.0578,-0.056,-0.0544,-0.0505,-0.041,-0.0221,-0.0125,-0.0019,0.0053,0.0196,0.0185,0.0239,0.0352,0.0349,0.0322,0,0,0,0,0,0,-0.0192,-0.027,-0.0337,-0.0456,-0.0527,-0.0603,-0.0634,-0.0623,-0.0603,-0.0563,-0.0468,-0.0386,-0.0208,-0.03,-0.0023,0.0018,0.0068,0.0283,0.0286,0.0353,0.0351,0.0349,0.032,0,0,0,0,0]}]]